Regional Weather Roundup
Issued by NWS

Home | Current Version | Previous Version | Graphics & Text | Print | Product List | Glossary On
Versions: 1 2 3 4 5 6 7 8 9 10 11 12 13 14 15 16 17 18 19 20 21 22 23 24 25 26 27 28 29 30 31 32 33 34 35 36 37 38 39 40 41 42 43 44 45 46 47 48 49 50
000
ASUS44 KOUN 181000
RWROK

WEATHER ROUNDUP FOR OKLAHOMA
NATIONAL WEATHER SERVICE NORMAN OK
400 AM CST MON DEC 18 2017

NOTE: "FAIR" INDICATES FEW OR NO CLOUDS BELOW 12,000 FEET WITH NO
      SIGNIFICANT WEATHER AND/OR OBSTRUCTIONS TO VISIBILITY.

OKZ001>007-009>012-014-015-017-181100-
NORTHWEST OKLAHOMA AND THE PANHANDLE

CITY           SKY/WX    TMP DP  RH WIND       PRES   REMARKS
GAGE           CLOUDY    23  20  88 W3        30.08S
GUYMON         CLEAR     19  17  92 SW6       30.03S WCI  11
$$

OKZ016-021>023-033>039-044-045-181100-
SOUTHWEST OKLAHOMA

CITY           SKY/WX    TMP DP  RH WIND       PRES   REMARKS
LAWTON/REGL    FOG       39  39 100 E5        30.14R VSB 1/4
LAWTON/FT SILL FOG       38  38 100 E5        30.12S VSB 1/4 WCI  35
FREDERICK      FOG       35  34  96 NE7       30.10S VSB 1/2 WCI  29
CLINTON        CLEAR     33  30  88 SW9       30.11S WCI  25
HOBART         FOG       37  36  96 W3        30.12F VSB 1/4
ALTUS AFB      FOG       36  35  98 N5        30.12S VSB 3/8 WCI  32
$$

OKZ018>020-024>031-181100-
CENTRAL OKLAHOMA

CITY           SKY/WX    TMP DP  RH WIND       PRES   REMARKS
OKLAHOMA CITY  FOG       39  39 100 SW7       30.13S VSB 1/8 WCI  34
OKC/WILEY POST FOG       40  40 100 SW8       30.13R VSB 1/4 WCI  34
OKC/TINKER AFB DRZL/FOG  41  41 100 SW8       30.12S VSB 1/2
STILLWATER     CLOUDY    43  41  93 SW5       30.12F FOG
GUTHRIE        FOG       41  41 100 SW10      30.13S VSB 1   WCI  35
$$

OKZ008-013-054>072-181100-
NORTHEAST OKLAHOMA

CITY           SKY/WX    TMP DP  RH WIND       PRES   REMARKS
TULSA          MOCLDY    44  42  93 SW12      30.14R
TULSA/JONES    CLOUDY    44  42  93 SW7       30.14S
PONCA CITY     FOG       36  35  96 S5        30.11R VSB 1/2 WCI  32
BARTLESVILLE   CLOUDY    45  42  89 SW7       30.13R
MUSKOGEE       CLOUDY    43  43 100 SW10      30.17R FOG
$$

OKZ032-040>043-046>053-073>077-181100-
SOUTH CENTRAL/SOUTHEAST OKLAHOMA

CITY           SKY/WX    TMP DP  RH WIND       PRES   REMARKS
MCALESTER      CLOUDY    47  45  93 CALM      30.17R FOG
$$





USA.gov is the U.S. government's official web portal to all federal, state and local government web resources and services.